Weather History for Spirit of St Louis, MO

Change the Weather History Date:

Wednesday, November 28, 2012

  Actual Average Record
Temperature  
Mean Temperature 35 °F -  
Max Temperature 51 °F 49 °F 72 °F (1998)
Min Temperature 19 °F 31 °F 17 °F (2013)
Degree Days  
Heating Degree Days 30    
Moisture  
Dew Point 22 °F    
Average Humidity 70    
Maximum Humidity 89    
Minimum Humidity 39    
Precipitation  
Precipitation 0.00 in - - ()
Sea Level Pressure  
Sea Level Pressure 30.39 in    
Wind  
Wind Speed 1 mph (South)    
Max Wind Speed 6 mph    
Max Gust Speed -    
Visibility 10 miles    
Events      
Averages and records for this station are not official NWS values.
T = Trace of Precipitation, MM = Missing Value Source: NWS Daily Summary

Daily Weather History Graph

Daily Weather History Graph

Search for Another Location

Airport:

Trip Planner

Search our weather history database for the weather conditions in past years. The results will help you decide how hot, cold, wet, or windy it might be!

Date:

Astronomy

Nov. 28, 2012 Rise Set
Actual Time 6:59 AM CST 4:42 PM CST
Civil Twilight 6:29 AM CST 5:11 PM CST
Nautical Twilight 5:57 AM CST 5:44 PM CST
Astronomical Twilight 5:25 AM CST 6:16 PM CST
Moon 4:57 PM CST (11/28) 6:56 AM CST (11/28)
Length of Visible Light 10h 41m
Length of Day
9h 43m
Full, 100% of the Moon is Illuminated
Nov 28
Full
Dec 6
Last Quarter
Dec 13
New
Dec 19
First Quarter
Dec 28
Full

Hourly Weather History & Observations

Time (CST) Temp. Windchill Dew Point Humidity Pressure Visibility Wind Dir Wind Speed Gust Speed Precip Events Conditions
12:54 AM 21.0 °F - 17.1 °F 85% 30.37 in 10.0 mi Calm Calm - N/A   Clear
1:54 AM 21.9 °F - 18.0 °F 85% 30.38 in 10.0 mi Calm Calm - N/A   Clear
2:54 AM 19.9 °F - 16.0 °F 85% 30.39 in 9.0 mi Calm Calm - N/A   Clear
3:54 AM 19.9 °F - 16.0 °F 85% 30.39 in 10.0 mi Calm Calm - N/A   Clear
4:54 AM 21.0 °F - 17.1 °F 85% 30.41 in 9.0 mi Calm Calm - N/A   Clear
5:54 AM 19.4 °F - 15.8 °F 86% 30.39 in 10.0 mi Calm Calm - N/A   Clear
6:54 AM 19.9 °F - 17.1 °F 89% 30.44 in 10.0 mi Calm Calm - N/A   Partly Cloudy
7:54 AM 24.1 °F - 19.9 °F 84% 30.46 in 8.0 mi Calm Calm - N/A   Partly Cloudy
8:54 AM 30.0 °F - 24.1 °F 79% 30.47 in 9.0 mi Calm Calm - N/A   Partly Cloudy
9:54 AM 37.9 °F 35.5 °F 26.1 °F 62% 30.48 in 10.0 mi West 3.5 mph - N/A   Partly Cloudy
10:54 AM 42.1 °F - 24.1 °F 49% 30.48 in 10.0 mi Calm Calm - N/A   Clear
11:54 AM 46.0 °F - 26.1 °F 46% 30.44 in 10.0 mi Calm Calm - N/A   Clear
12:54 PM 50.0 °F - 26.1 °F 39% 30.42 in 10.0 mi Variable 4.6 mph - N/A   Clear
1:54 PM 51.1 °F - 27.0 °F 39% 30.39 in 10.0 mi Calm Calm - N/A   Clear
2:54 PM 50.0 °F - 26.1 °F 39% 30.37 in 10.0 mi SSW 4.6 mph - N/A   Clear
3:54 PM 50.0 °F - 26.1 °F 39% 30.37 in 10.0 mi SSE 4.6 mph - N/A   Clear
4:54 PM 39.9 °F - 27.0 °F 60% 30.37 in 10.0 mi Calm Calm - N/A   Clear
5:54 PM 37.0 °F 32.4 °F 26.1 °F 65% 30.37 in 10.0 mi SSE 5.8 mph - N/A   Clear
6:54 PM 34.0 °F 31.0 °F 25.0 °F 70% 30.37 in 10.0 mi SSE 3.5 mph - N/A   Clear
7:54 PM 28.9 °F - 23.0 °F 78% 30.36 in 10.0 mi Calm Calm - N/A   Clear
8:54 PM 28.9 °F - 24.1 °F 82% 30.35 in 10.0 mi Calm Calm - N/A   Clear
9:54 PM 27.0 °F - 23.0 °F 85% 30.34 in 10.0 mi Calm Calm - N/A   Clear
10:54 PM 26.1 °F - 21.9 °F 84% 30.32 in 10.0 mi Calm Calm - N/A   Clear
11:54 PM 28.0 °F - 21.9 °F 78% 30.32 in 10.0 mi Calm Calm - N/A   Clear